Location: Nelson
(41.2830°S, 173.2830°E)
Time: 14:35:34
(UTC+13:00)

Meteor 1-26 Rocket - Pass Details

Date: 21 October 2019
Orbit: 817 x 918 km, 81.3° (Epoch: 12 November)

Event Time Altitude Azimuth Distance (km) Brightness Sun altitude
Rises 00:35:46 0° 208° (SSW) 3,383 8.2 -37.7°
Reaches altitude 10° 00:39:06 10° 229° (SW) 2,446 7.1 -37.8°
Enters shadow 00:40:49 14° 246° (WSW) 2,147 6.6 -37.9°
